Regional Weather Roundup
Issued by NWS Sioux Falls, SD

Home | Current Version | Previous Version | Graphics & Text | Print | Product List | Glossary On
Versions: 1 2 3 4 5 6 7 8 9 10 11 12 13 14 15 16 17 18 19 20 21 22 23 24 25 26 27 28 29 30 31 32 33 34 35 36 37 38 39 40 41 42 43 44 45 46 47 48 49 50
000
ASUS43 KFSD 290302
RWRFSD

WEATHER ROUNDUP FOR SE SOUTH DAKOTA/SW MINNESOTA/NW IOWA
NATIONAL WEATHER SERVICE SIOUX FALLS SD
1000 PM CDT TUE MAR 28 2017

NOTE: "FAIR" INDICATES FEW OR NO CLOUDS BELOW 12,000 FEET WITH NO
SIGNIFICANT WEATHER AND OR OBSTRUCTIONS TO VISIBILITY.


SDZ038>040-050-052>070-290400-
SOUTHEAST SOUTH DAKOTA

CITY           SKY/WX    TMP DP  RH WIND       PRES   REMARKS
BROOKINGS      CLOUDY    49  38  65 CALM      30.17R
CHAMBERLAIN    CLOUDY    49  46  88 W3        30.16S
HURON          CLOUDY    49  39  68 E5        30.16R
MADISON        FAIR      46  41  81 E6        30.16S
MITCHELL       MOCLDY    50  36  58 E5        30.15S
SIOUX FALLS    CLOUDY    45  37  73 NE6       30.15R
WINNER         CLOUDY    45  42  89 SW3       30.16S
YANKTON        CLOUDY    52  36  54 NE9       30.11F
$$

MNZ071-072-080-081-089-090-097-098-290400-
SOUTHWEST MINNESOTA

CITY           SKY/WX    TMP DP  RH WIND       PRES   REMARKS
FAIRMONT       PTCLDY    47  40  76 E5        30.18R
JACKSON        CLOUDY    45  37  76 CALM      30.17R
LUVERNE        MOCLDY    45  34  65 CALM      30.16S
MARSHALL       PTCLDY    51  35  54 SE5       30.18R
MONTEVIDEO     CLOUDY    46  36  66 E5        30.19R
PIPESTONE      PTCLDY    46  32  57 SE3       30.16R
REDWOOD FALLS  CLOUDY    54  32  43 E5        30.18R
TRACY          PTCLDY    48  38  66 CALM      30.18R
WINDOM         CLOUDY    45  37  76 CALM      30.17S
WORTHINGTON    PTCLDY    46  39  76 E3        30.17R
$$

IAZ001>003-012>014-020>022-031-032-NEZ013-014-SDZ071-290400-
NORTHWEST IOWA

CITY           SKY/WX    TMP DP  RH WIND       PRES   REMARKS
CHEROKEE       CLOUDY    45  42  90 CALM      30.14F
DENISON        MOCLDY    46  43  87 E6        30.14R
ESTHERVILLE    CLOUDY    45  42  89 E5        30.16R
LE MARS        CLOUDY    50  43  76 SE5       30.14F
ORANGE CITY    MOCLDY    48  45  87 CALM      30.15S
SHELDON        CLOUDY    46  41  81 NE7       30.13S
SIOUX CITY     CLOUDY    48  42  80 E5        30.13S
SPENCER        MOCLDY    46  41  82 NE7       30.15R
STORM LAKE     CLOUDY    43  39  87 CALM      30.13F
$$

ABBREVIATIONS USED IN REMARKS
   TC - TEMPERATURE IN CELSIUS
  WCI - WIND CHILL INDEX
   HX - HEAT INDEX
  VSB - VISIBILITY





USA.gov is the U.S. government's official web portal to all federal, state and local government web resources and services.